This demonstration page uses our WeatherBlox Daily Observations layout. Learn more.

Left ArrowRight Arrow

Hourly Observations for September 3, 2015

Temp ( °F °C ) Dew Point ( °F °C ) Humidity (%) Winds ( mph kmh ) Pressure ( in mb ) Visibility ( mi km ) Precip ( " mm )
12:53 am 00:53 Clear 77 25 63 17.2 62 62 S 10 17 29.79 1009 10 16 0.00 0.00
1:53 am 01:53 Clear 76 24.4 63 17.2 64 64 S 9 15 29.78 1008 10 16 0.00 0.00
2:53 am 02:53 Clear 74 23.3 63 17.2 69 69 S 8 13 29.77 1008 10 16 0.00 0.00
3:53 am 03:53 Clear 73 22.8 63 17.2 71 71 S 8 13 29.76 1008 10 16 0.00 0.00
4:53 am 04:53 Clear 72 22.2 63 17.2 73 73 S 9 15 29.76 1008 10 16 0.00 0.00
5:53 am 05:53 Clear 72 22.2 62 16.7 71 71 S 8 13 29.76 1008 10 16 0.00 0.00
6:53 am 06:53 Clear 71 21.7 62 16.7 73 73 S 9 15 29.77 1008 10 16 0.00 0.00
7:53 am 07:53 Sunny 71 21.7 62 16.7 73 73 S 7 11 29.78 1008 10 16 0.00 0.00
8:53 am 08:53 Sunny 75 23.9 62 16.7 64 64 S 12 19 29.78 1009 10 16 0.00 0.00
9:53 am 09:53 Sunny 79 26.1 63 17.2 58 58 S 12 19 29.78 1009 10 16 0.00 0.00
10:53 am 10:53 Sunny 83 28.3 62 16.7 49 49 SSW 15 24 29.78 1008 10 16 0.00 0.00
11:53 am 11:53 Sunny 87 30.6 63 17.2 45 45 S 10 17 29.78 1008 10 16 0.00 0.00
12:53 pm 12:53 Sunny 90 32.2 62 16.7 39 39 S 12 19 29.76 1008 10 16 0.00 0.00
1:53 pm 13:53 Sunny 93 33.9 62 16.7 36 36 SSE 16 26 29.74 1007 10 16 0.00 0.00
2:53 pm 14:53 Sunny 95 35 63 17.2 35 35 S 18 30 29.73 1007 10 16 0.00 0.00
3:53 pm 15:53 Sunny 96 35.6 63 17.2 34 34 S 16 26 29.72 1006 10 16 0.00 0.00
4:53 pm 16:53 Sunny 96 35.6 62 16.7 32 32 S 14 22 29.70 1006 10 16 0.00 0.00
5:53 pm 17:53 Sunny 94 34.4 62 16.7 35 35 S 12 19 29.70 1006 10 16 0.00 0.00
6:53 pm 18:53 Sunny 91 32.8 61 16.1 37 37 S 13 20 29.70 1006 10 16 0.00 0.00
7:53 pm 19:53 Sunny 88 31.1 63 17.2 43 43 SSE 12 19 29.71 1006 10 16 0.00 0.00
8:53 pm 20:53 Clear 85 29.4 62 16.7 46 46 SSE 14 22 29.73 1007 10 16 0.00 0.00
9:53 pm 21:53 Clear 82 27.8 63 17.2 53 53 SSE 9 15 29.75 1008 10 16 0.00 0.00
10:53 pm 22:53 Clear 81 27.2 63 17.2 54 54 SSE 10 17 29.75 1008 10 16 0.00 0.00
11:53 pm 23:53 Clear 80 26.7 63 17.2 56 56 SSE 12 19 29.75 1008 10 16 0.00 0.00

Powered by AerisWeather